カタログに戻る

AMAZONAS 2

運用中通信GEO
NORAD 35942·PAYLOAD·🇧🇷 Brazil

打ち上げ Sep 30, 2009 から Guiana Space Centre

Loading…

TLE

最新Source: Space-Track

元期: Sep 14, 2026, 11:44 UTC

1 35942U 09054A   26257.48955277 -.00000267  00000-0  00000-0 0  9996
2 35942   2.0401  81.7982 0003281  84.0790 291.8262  1.00273497 62088

AllMySatでAMAZONAS 2をリアルタイム追跡

Download on the App Store